Location: ???????
(55.4362°N, 38.1183°E)
Time: 09:51:31
(UTC+00:00)

Oscar 11 - Pass Details

Date: 08 December 2021
Orbit: 611 x 625 km, 97.6° (Epoch: 28 January)

Event Time Altitude Azimuth Distance (km) Brightness Sun altitude
Rises 02:47:06 0° 17° (NNE) 2,922 10.6 -23.1°
Reaches altitude 10° 02:49:21 10° 21° (NNE) 2,009 9.8 -22.7°
Maximum altitude 02:53:39 57° 100° (E) 741 7.7 -22.1°
Drops below altitude 10° 02:57:55 10° 180° (S) 1,985 9.7 -21.5°
Sets 03:00:07 0° 184° (S) 2,883 10.6 -21.2°
